Powrót do katalogu

IUE DEB

LostHEO
NORAD 33000·DEBRIS·🇺🇸 United States

Wystrzelony Jan 26, 1978 z Cape Canaveral Space Force Station

Loading…

Następne Przeloty (najbliższe 24 godziny)

TLE

NieaktualneSource: Space-Track

Epoka: Jan 16, 2024, 14:12 UTC

1 33000U 78012D   24016.59218522 -.00000025  00000-0  00000+0 0  9998
2 33000  39.1397 292.0517 3087814 277.5914 296.1444  1.00380973 58534

Śledź IUE DEB w czasie rzeczywistym z AllMySat

Download on the App Store